Year,Month,Day,Hour,Minute,Value (Times are PST for temperature in C)
2010,02,19,00,00,-0.30
2010,02,19,00,01,-0.30
2010,02,19,00,02,-0.30
2010,02,19,00,03,-0.30
2010,02,19,00,04,-0.40
2010,02,19,00,05,-0.40
2010,02,19,00,06,-0.40
2010,02,19,00,07,-0.40
2010,02,19,00,08,-0.40
2010,02,19,00,09,-0.40
2010,02,19,00,10,-0.40
2010,02,19,00,11,-0.50
2010,02,19,00,12,-0.50
2010,02,19,00,13,-0.50
2010,02,19,00,14,-0.50
2010,02,19,00,15,-0.50
2010,02,19,00,16,-0.50
2010,02,19,00,17,-0.40
2010,02,19,00,18,-0.50
2010,02,19,00,19,-0.50
2010,02,19,00,20,-0.50
2010,02,19,00,21,-0.40
2010,02,19,00,22,-0.40
2010,02,19,00,23,-0.40
2010,02,19,00,24,-0.40
2010,02,19,00,25,-0.40
2010,02,19,00,26,-0.50
2010,02,19,00,27,-0.50
2010,02,19,00,28,-0.50
2010,02,19,00,29,-0.60
2010,02,19,00,30,-0.60
2010,02,19,00,31,-0.60
2010,02,19,00,32,-0.60
2010,02,19,00,33,-0.70
2010,02,19,00,34,-0.70
2010,02,19,00,35,-0.70
2010,02,19,00,36,-0.70
2010,02,19,00,37,-0.70
2010,02,19,00,38,-0.70
2010,02,19,00,39,-0.80
2010,02,19,00,40,-0.80
2010,02,19,00,41,-0.80
2010,02,19,00,42,-0.80
2010,02,19,00,43,-0.80
2010,02,19,00,44,-0.80
2010,02,19,00,45,-0.80
2010,02,19,00,46,-0.90
2010,02,19,00,47,-0.90
2010,02,19,00,48,-0.90
2010,02,19,00,49,-0.90
2010,02,19,00,50,-0.90
2010,02,19,00,51,-0.90
2010,02,19,00,52,-0.90
2010,02,19,00,53,-0.90
2010,02,19,00,54,-0.90
2010,02,19,00,55,-0.90
2010,02,19,00,56,-0.90
2010,02,19,00,57,-0.90
2010,02,19,00,58,-0.90
2010,02,19,00,59,-1.00
2010,02,19,01,00,-1.00
2010,02,19,01,01,-1.00
2010,02,19,01,02,-1.00
2010,02,19,01,03,-1.00
2010,02,19,01,04,-1.00
2010,02,19,01,05,-1.00
2010,02,19,01,06,-1.00
2010,02,19,01,07,-1.00
2010,02,19,01,08,-1.00
2010,02,19,01,09,-1.00
2010,02,19,01,10,-1.10
2010,02,19,01,11,-1.10
2010,02,19,01,12,-1.10
2010,02,19,01,13,-1.10
2010,02,19,01,14,-1.10
2010,02,19,01,15,-1.10
2010,02,19,01,16,-1.10
2010,02,19,01,17,-1.10
2010,02,19,01,18,-1.10
2010,02,19,01,19,-1.10
2010,02,19,01,20,-1.10
2010,02,19,01,21,-1.10
2010,02,19,01,22,-1.10
2010,02,19,01,23,-1.10
2010,02,19,01,24,-1.20
2010,02,19,01,25,-1.20
2010,02,19,01,26,-1.20
2010,02,19,01,27,-1.20
2010,02,19,01,28,-1.20
2010,02,19,01,29,-1.20
2010,02,19,01,30,-1.20
2010,02,19,01,31,-1.20
2010,02,19,01,32,-1.20
2010,02,19,01,33,-1.30
2010,02,19,01,34,-1.30
2010,02,19,01,35,-1.30
2010,02,19,01,36,-1.30
2010,02,19,01,37,-1.30
2010,02,19,01,38,-1.30
2010,02,19,01,39,-1.30
2010,02,19,01,40,-1.30
2010,02,19,01,41,-1.30
2010,02,19,01,42,-1.30
2010,02,19,01,43,-1.30
2010,02,19,01,44,-1.30
2010,02,19,01,45,-1.30
2010,02,19,01,46,-1.30
2010,02,19,01,47,-1.30
2010,02,19,01,48,-1.30
2010,02,19,01,49,-1.30
2010,02,19,01,50,-1.30
2010,02,19,01,51,-1.30
2010,02,19,01,52,-1.30
2010,02,19,01,53,-1.30
2010,02,19,01,54,-1.30
2010,02,19,01,55,-1.30
2010,02,19,01,56,-1.40
2010,02,19,01,57,-1.40
2010,02,19,01,58,-1.40
2010,02,19,01,59,-1.40
2010,02,19,02,00,-1.40
2010,02,19,02,01,-1.40
2010,02,19,02,02,-1.40
2010,02,19,02,03,-1.40
2010,02,19,02,04,-1.40
2010,02,19,02,05,-1.40
2010,02,19,02,06,-1.50
2010,02,19,02,07,-1.40
2010,02,19,02,08,-1.50
2010,02,19,02,09,-1.50
2010,02,19,02,10,-1.50
2010,02,19,02,11,-1.50
2010,02,19,02,12,-1.50
2010,02,19,02,13,-1.50
2010,02,19,02,14,-1.50
2010,02,19,02,15,-1.50
2010,02,19,02,16,-1.50
2010,02,19,02,17,-1.50
2010,02,19,02,18,-1.50
2010,02,19,02,19,-1.60
2010,02,19,02,20,-1.60
2010,02,19,02,21,-1.60
2010,02,19,02,22,-1.60
2010,02,19,02,23,-1.60
2010,02,19,02,24,-1.60
2010,02,19,02,25,-1.60
2010,02,19,02,26,-1.60
2010,02,19,02,27,-1.60
2010,02,19,02,28,-1.60
2010,02,19,02,29,-1.60
2010,02,19,02,30,-1.60
2010,02,19,02,31,-1.60
2010,02,19,02,32,-1.60
2010,02,19,02,33,-1.70
2010,02,19,02,34,-1.70
2010,02,19,02,35,-1.70
2010,02,19,02,36,-1.70
2010,02,19,02,37,-1.70
2010,02,19,02,38,-1.70
2010,02,19,02,39,-1.70
2010,02,19,02,40,-1.70
2010,02,19,02,41,-1.70
2010,02,19,02,42,-1.70
2010,02,19,02,43,-1.70
2010,02,19,02,44,-1.70
2010,02,19,02,45,-1.80
2010,02,19,02,46,-1.80
2010,02,19,02,47,-1.80
2010,02,19,02,48,-1.80
2010,02,19,02,49,-1.80
2010,02,19,02,50,-1.80
2010,02,19,02,52,-1.80
2010,02,19,02,54,-1.80
2010,02,19,02,55,-1.80
2010,02,19,02,56,-1.80
2010,02,19,02,57,-1.80
2010,02,19,02,58,-1.80
2010,02,19,02,59,-1.80
2010,02,19,03,00,-1.80
2010,02,19,03,01,-1.80
2010,02,19,03,02,-1.80
2010,02,19,03,03,-1.80
2010,02,19,03,04,-1.80
2010,02,19,03,05,-1.80
2010,02,19,03,06,-1.80
2010,02,19,03,07,-1.80
2010,02,19,03,08,-1.80
2010,02,19,03,09,-1.80
2010,02,19,03,10,-1.80
2010,02,19,03,11,-1.80
2010,02,19,03,12,-1.80
2010,02,19,03,13,-1.80
2010,02,19,03,14,-1.80
2010,02,19,03,15,-1.80
2010,02,19,03,16,-1.80
2010,02,19,03,17,-1.80
2010,02,19,03,18,-1.80
2010,02,19,03,19,-1.80
2010,02,19,03,20,-1.80
2010,02,19,03,21,-1.80
2010,02,19,03,22,-1.80
2010,02,19,03,23,-1.80
2010,02,19,03,24,-1.80
2010,02,19,03,25,-1.80
2010,02,19,03,26,-1.80
2010,02,19,03,27,-1.80
2010,02,19,03,28,-1.80
2010,02,19,03,29,-1.80
2010,02,19,03,30,-1.80
2010,02,19,03,31,-1.80
2010,02,19,03,32,-1.80
2010,02,19,03,33,-1.80
2010,02,19,03,34,-1.80
2010,02,19,03,35,-1.80
2010,02,19,03,36,-1.80
2010,02,19,03,37,-1.80
2010,02,19,03,38,-1.80
2010,02,19,03,39,-1.80
2010,02,19,03,40,-1.80
2010,02,19,03,41,-1.80
2010,02,19,03,42,-1.80
2010,02,19,03,43,-1.80
2010,02,19,03,44,-1.80
2010,02,19,03,45,-1.80
2010,02,19,03,46,-1.80
2010,02,19,03,47,-1.80
2010,02,19,03,48,-1.80
2010,02,19,03,49,-1.80
2010,02,19,03,50,-1.80
2010,02,19,03,51,-1.70
2010,02,19,03,52,-1.70
2010,02,19,03,53,-1.70
2010,02,19,03,54,-1.70
2010,02,19,03,55,-1.70
2010,02,19,03,56,-1.70
2010,02,19,03,57,-1.70
2010,02,19,03,58,-1.70
2010,02,19,03,59,-1.70
2010,02,19,04,00,-1.70
2010,02,19,04,01,-1.70
2010,02,19,04,02,-1.60
2010,02,19,04,03,-1.60
2010,02,19,04,04,-1.60
2010,02,19,04,05,-1.60
2010,02,19,04,06,-1.60
2010,02,19,04,07,-1.60
2010,02,19,04,08,-1.60
2010,02,19,04,09,-1.60
2010,02,19,04,10,-1.60
2010,02,19,04,11,-1.60
2010,02,19,04,12,-1.60
2010,02,19,04,13,-1.60
2010,02,19,04,14,-1.60
2010,02,19,04,15,-1.60
2010,02,19,04,16,-1.60
2010,02,19,04,17,-1.50
2010,02,19,04,18,-1.50
2010,02,19,04,19,-1.50
2010,02,19,04,20,-1.50
2010,02,19,04,21,-1.50
2010,02,19,04,22,-1.50
2010,02,19,04,23,-1.50
2010,02,19,04,24,-1.40
2010,02,19,04,25,-1.50
2010,02,19,04,26,-1.40
2010,02,19,04,27,-1.50
2010,02,19,04,28,-1.50
2010,02,19,04,29,-1.50
2010,02,19,04,30,-1.50
2010,02,19,04,31,-1.50
2010,02,19,04,32,-1.50
2010,02,19,04,33,-1.50
2010,02,19,04,34,-1.50
2010,02,19,04,35,-1.60
2010,02,19,04,36,-1.60
2010,02,19,04,37,-1.60
2010,02,19,04,38,-1.60
2010,02,19,04,39,-1.60
2010,02,19,04,40,-1.60
2010,02,19,04,41,-1.60
2010,02,19,04,42,-1.60
2010,02,19,04,43,-1.60
2010,02,19,04,44,-1.60
2010,02,19,04,45,-1.60
2010,02,19,04,46,-1.60
2010,02,19,04,47,-1.60
2010,02,19,04,48,-1.60
2010,02,19,04,49,-1.60
2010,02,19,04,50,-1.60
2010,02,19,04,51,-1.60
2010,02,19,04,52,-1.60
2010,02,19,04,53,-1.70
2010,02,19,04,54,-1.60
2010,02,19,04,55,-1.70
2010,02,19,04,56,-1.70
2010,02,19,04,57,-1.70
2010,02,19,04,58,-1.70
2010,02,19,04,59,-1.70
2010,02,19,05,00,-1.70
2010,02,19,05,01,-1.70
2010,02,19,05,02,-1.70
2010,02,19,05,03,-1.70
2010,02,19,05,04,-1.70
2010,02,19,05,05,-1.70
2010,02,19,05,06,-1.70
2010,02,19,05,07,-1.70
2010,02,19,05,08,-1.70
2010,02,19,05,09,-1.70
2010,02,19,05,10,-1.60
2010,02,19,05,11,-1.60
2010,02,19,05,12,-1.70
2010,02,19,05,13,-1.60
2010,02,19,05,14,-1.60
2010,02,19,05,15,-1.60
2010,02,19,05,16,-1.60
2010,02,19,05,17,-1.60
2010,02,19,05,18,-1.60
2010,02,19,05,19,-1.60
2010,02,19,05,20,-1.60
2010,02,19,05,21,-1.70
2010,02,19,05,22,-1.70
2010,02,19,05,23,-1.70
2010,02,19,05,24,-1.70
2010,02,19,05,25,-1.70
2010,02,19,05,26,-1.70
2010,02,19,05,27,-1.70
2010,02,19,05,28,-1.70
2010,02,19,05,29,-1.70
2010,02,19,05,30,-1.70
2010,02,19,05,31,-1.70
2010,02,19,05,32,-1.70
2010,02,19,05,33,-1.70
2010,02,19,05,34,-1.70
2010,02,19,05,35,-1.70
2010,02,19,05,36,-1.70
2010,02,19,05,37,-1.70
2010,02,19,05,38,-1.70
2010,02,19,05,39,-1.70
2010,02,19,05,40,-1.60
2010,02,19,05,41,-1.60
2010,02,19,05,42,-1.60
2010,02,19,05,43,-1.60
2010,02,19,05,44,-1.60
2010,02,19,05,45,-1.60
2010,02,19,05,46,-1.60
2010,02,19,05,47,-1.60
2010,02,19,05,48,-1.60
2010,02,19,05,49,-1.50
2010,02,19,05,50,-1.50
2010,02,19,05,51,-1.50
2010,02,19,05,52,-1.50
2010,02,19,05,53,-1.50
2010,02,19,05,54,-1.50
2010,02,19,05,55,-1.50
2010,02,19,05,56,-1.40
2010,02,19,05,57,-1.40
2010,02,19,05,58,-1.40
2010,02,19,05,59,-1.40
2010,02,19,06,00,-1.40
2010,02,19,06,01,-1.40
2010,02,19,06,02,-1.40
2010,02,19,06,03,-1.40
2010,02,19,06,04,-1.40
2010,02,19,06,05,-1.40
2010,02,19,06,06,-1.40
2010,02,19,06,07,-1.40
2010,02,19,06,08,-1.40
2010,02,19,06,09,-1.50
2010,02,19,06,10,-1.50
2010,02,19,06,11,-1.50
2010,02,19,06,12,-1.50
2010,02,19,06,13,-1.50
2010,02,19,06,14,-1.50
2010,02,19,06,15,-1.60
2010,02,19,06,16,-1.60
2010,02,19,06,17,-1.60
2010,02,19,06,18,-1.60
2010,02,19,06,19,-1.60
2010,02,19,06,20,-1.60
2010,02,19,06,21,-1.60
2010,02,19,06,22,-1.60
2010,02,19,06,23,-1.60
2010,02,19,06,24,-1.60
2010,02,19,06,25,-1.60
2010,02,19,06,26,-1.60
2010,02,19,06,27,-1.60
2010,02,19,06,28,-1.60
2010,02,19,06,29,-1.60
2010,02,19,06,30,-1.60
2010,02,19,06,31,-1.60
2010,02,19,06,32,-1.60
2010,02,19,06,33,-1.60
2010,02,19,06,34,-1.60
2010,02,19,06,35,-1.60
2010,02,19,06,36,-1.60
2010,02,19,06,37,-1.60
2010,02,19,06,38,-1.60
2010,02,19,06,39,-1.60
2010,02,19,06,40,-1.60
2010,02,19,06,41,-1.60
2010,02,19,06,42,-1.60
2010,02,19,06,43,-1.60
2010,02,19,06,44,-1.60
2010,02,19,06,45,-1.60
2010,02,19,06,46,-1.60
2010,02,19,06,47,-1.60
2010,02,19,06,48,-1.70
2010,02,19,06,49,-1.70
2010,02,19,06,50,-1.70
2010,02,19,06,51,-1.70
2010,02,19,06,52,-1.70
2010,02,19,06,53,-1.70
2010,02,19,06,54,-1.70
2010,02,19,06,55,-1.70
2010,02,19,06,56,-1.70
2010,02,19,06,57,-1.70
2010,02,19,06,58,-1.70
2010,02,19,06,59,-1.70
2010,02,19,07,00,-1.70
2010,02,19,07,01,-1.70
2010,02,19,07,02,-1.70
2010,02,19,07,03,-1.70
2010,02,19,07,04,-1.70
2010,02,19,07,05,-1.70
2010,02,19,07,06,-1.70
2010,02,19,07,07,-1.70
2010,02,19,07,08,-1.70
2010,02,19,07,09,-1.70
2010,02,19,07,10,-1.70
2010,02,19,07,11,-1.70
2010,02,19,07,12,-1.70
2010,02,19,07,13,-1.70
2010,02,19,07,14,-1.70
2010,02,19,07,15,-1.80
2010,02,19,07,16,-1.80
2010,02,19,07,17,-1.80
2010,02,19,07,18,-1.80
2010,02,19,07,19,-1.80
2010,02,19,07,20,-1.80
2010,02,19,07,21,-1.80
2010,02,19,07,22,-1.80
2010,02,19,07,23,-1.80
2010,02,19,07,24,-1.80
2010,02,19,07,25,-1.80
2010,02,19,07,26,-1.80
2010,02,19,07,27,-1.90
2010,02,19,07,28,-1.90
2010,02,19,07,29,-1.80
2010,02,19,07,30,-1.90
2010,02,19,07,31,-1.90
2010,02,19,07,32,-1.90
2010,02,19,07,33,-1.90
2010,02,19,07,34,-1.90
2010,02,19,07,35,-1.90
2010,02,19,07,36,-1.90
2010,02,19,07,37,-1.90
2010,02,19,07,38,-1.90
2010,02,19,07,39,-1.90
2010,02,19,07,40,-1.90
2010,02,19,07,41,-1.90
2010,02,19,07,42,-1.90
2010,02,19,07,43,-1.90
2010,02,19,07,44,-1.90
2010,02,19,07,45,-1.90
2010,02,19,07,46,-1.90
2010,02,19,07,47,-1.90
2010,02,19,07,48,-1.90
2010,02,19,07,49,-1.90
2010,02,19,07,50,-1.90
2010,02,19,07,51,-1.90
2010,02,19,07,52,-2.00
2010,02,19,07,53,-2.00
2010,02,19,07,54,-2.00
2010,02,19,07,55,-2.00
2010,02,19,07,56,-2.00
2010,02,19,07,57,-2.00
2010,02,19,07,58,-2.00
2010,02,19,07,59,-2.00
2010,02,19,08,00,-2.00
2010,02,19,08,01,-2.10
2010,02,19,08,02,-2.10
2010,02,19,08,03,-2.10
2010,02,19,08,04,-2.10
2010,02,19,08,05,-2.10
2010,02,19,08,06,-2.10
2010,02,19,08,07,-2.10
2010,02,19,08,08,-2.10
2010,02,19,08,09,-2.10
2010,02,19,08,10,-2.10
2010,02,19,08,11,-2.10
2010,02,19,08,12,-2.10
2010,02,19,08,13,-2.10
2010,02,19,08,14,-2.10
2010,02,19,08,15,-2.10
2010,02,19,08,16,-2.10
2010,02,19,08,17,-2.10
2010,02,19,08,18,-2.10
2010,02,19,08,19,-2.10
2010,02,19,08,20,-2.10
2010,02,19,08,21,-2.00
2010,02,19,08,22,-2.00
2010,02,19,08,23,-2.00
2010,02,19,08,24,-1.90
2010,02,19,08,25,-1.90
2010,02,19,08,26,-1.90
2010,02,19,08,27,-1.90
2010,02,19,08,28,-1.90
2010,02,19,08,29,-1.80
2010,02,19,08,30,-1.80
2010,02,19,08,31,-1.80
2010,02,19,08,32,-1.80
2010,02,19,08,33,-1.80
2010,02,19,08,34,-1.80
2010,02,19,08,35,-1.80
2010,02,19,08,36,-1.80
2010,02,19,08,37,-1.80
2010,02,19,08,38,-1.70
2010,02,19,08,39,-1.70
2010,02,19,08,40,-1.70
2010,02,19,08,41,-1.70
2010,02,19,08,42,-1.70
2010,02,19,08,43,-1.70
2010,02,19,08,44,-1.70
2010,02,19,08,45,-1.60
2010,02,19,08,46,-1.60
2010,02,19,08,47,-1.60
2010,02,19,08,48,-1.60
2010,02,19,08,49,-1.60
2010,02,19,08,50,-1.60
2010,02,19,08,51,-1.60
2010,02,19,08,52,-1.60
2010,02,19,08,53,-1.60
2010,02,19,08,54,-1.60
2010,02,19,08,55,-1.50
2010,02,19,08,56,-1.50
2010,02,19,08,57,-1.50
2010,02,19,08,58,-1.40
2010,02,19,08,59,-1.40
2010,02,19,09,00,-1.40
2010,02,19,09,01,-1.40
2010,02,19,09,02,-1.30
2010,02,19,09,03,-1.30
2010,02,19,09,04,-1.30
2010,02,19,09,05,-1.30
2010,02,19,09,06,-1.30
2010,02,19,09,07,-1.30
2010,02,19,09,08,-1.30
2010,02,19,09,09,-1.20
2010,02,19,09,10,-1.20
2010,02,19,09,11,-1.20
2010,02,19,09,12,-1.20
2010,02,19,09,13,-1.20
2010,02,19,09,14,-1.10
2010,02,19,09,15,-1.10
2010,02,19,09,16,-1.10
2010,02,19,09,17,-1.10
2010,02,19,09,18,-1.10
2010,02,19,09,19,-1.00
2010,02,19,09,20,-1.00
2010,02,19,09,21,-1.00
2010,02,19,09,22,-1.00
2010,02,19,09,23,-1.00
2010,02,19,09,24,-1.00
2010,02,19,09,25,-0.90
2010,02,19,09,26,-0.90
2010,02,19,09,27,-0.90
2010,02,19,09,28,-0.80
2010,02,19,09,29,-0.80
2010,02,19,09,30,-0.80
2010,02,19,09,31,-0.80
2010,02,19,09,32,-0.70
2010,02,19,09,33,-0.70
2010,02,19,09,34,-0.60
2010,02,19,09,35,-0.60
2010,02,19,09,36,-0.50
2010,02,19,09,37,-0.40
2010,02,19,09,38,-0.40
2010,02,19,09,39,-0.40
2010,02,19,09,40,-0.30
2010,02,19,09,41,-0.30
2010,02,19,09,42,-0.30
2010,02,19,09,43,-0.30
2010,02,19,09,44,-0.30
2010,02,19,09,45,-0.30
2010,02,19,09,46,-0.30
2010,02,19,09,47,-0.30
2010,02,19,09,48,-0.20
2010,02,19,09,49,-0.20
2010,02,19,09,50,-0.20
2010,02,19,09,51,-0.20
2010,02,19,09,52,-0.20
2010,02,19,09,53,-0.10
2010,02,19,09,54,-0.10
2010,02,19,09,55,-0.10
2010,02,19,09,56,-0.10
2010,02,19,09,57,0.00
2010,02,19,09,58,0.00
2010,02,19,09,59,0.10
2010,02,19,10,00,0.10
2010,02,19,10,01,0.10
2010,02,19,10,02,0.20
2010,02,19,10,03,0.20
2010,02,19,10,04,0.20
2010,02,19,10,05,0.30
2010,02,19,10,06,0.30
2010,02,19,10,07,0.30
2010,02,19,10,08,0.40
2010,02,19,10,09,0.40
2010,02,19,10,10,0.40
2010,02,19,10,11,0.40
2010,02,19,10,12,0.40
2010,02,19,10,13,0.40
2010,02,19,10,14,0.40
2010,02,19,10,15,0.40
2010,02,19,10,16,0.40
2010,02,19,10,17,0.40
2010,02,19,10,18,0.50
2010,02,19,10,19,0.50
2010,02,19,10,20,0.50
2010,02,19,10,21,0.60
2010,02,19,10,22,0.60
2010,02,19,10,23,0.70
2010,02,19,10,24,0.70
2010,02,19,10,25,0.70
2010,02,19,10,26,0.70
2010,02,19,10,27,0.70
2010,02,19,10,28,0.80
2010,02,19,10,29,0.80
2010,02,19,10,30,0.80
2010,02,19,10,31,0.90
2010,02,19,10,32,0.90
2010,02,19,10,33,0.90
2010,02,19,10,34,1.00
2010,02,19,10,35,1.10
2010,02,19,10,36,1.10
2010,02,19,10,37,1.20
2010,02,19,10,38,1.20
2010,02,19,10,39,1.20
2010,02,19,10,40,1.30
2010,02,19,10,41,1.30
2010,02,19,10,42,1.30
2010,02,19,10,43,1.30
2010,02,19,10,44,1.30
2010,02,19,10,45,1.40
2010,02,19,10,46,1.40
2010,02,19,10,47,1.50
2010,02,19,10,48,1.50
2010,02,19,10,49,1.60
2010,02,19,10,50,1.60
2010,02,19,10,51,1.60
2010,02,19,10,52,1.60
2010,02,19,10,53,1.70
2010,02,19,10,54,1.70
2010,02,19,10,55,1.80
2010,02,19,10,56,1.80
2010,02,19,10,57,1.90
2010,02,19,10,58,1.90
2010,02,19,10,59,2.00
2010,02,19,11,00,2.10
2010,02,19,11,01,2.10
2010,02,19,11,02,2.20
2010,02,19,11,03,2.20
2010,02,19,11,04,2.30
2010,02,19,11,05,2.40
2010,02,19,11,06,2.40
2010,02,19,11,07,2.60
2010,02,19,11,08,2.60
2010,02,19,11,09,2.70
2010,02,19,11,10,2.70
2010,02,19,11,11,2.80
2010,02,19,11,12,2.80
2010,02,19,11,13,2.90
2010,02,19,11,14,3.00
2010,02,19,11,15,3.00
2010,02,19,11,16,3.10
2010,02,19,11,17,3.10
2010,02,19,11,18,3.10
2010,02,19,11,19,3.20
2010,02,19,11,20,3.20
2010,02,19,11,21,3.30
2010,02,19,11,22,3.30
2010,02,19,11,23,3.40
2010,02,19,11,24,3.40
2010,02,19,11,25,3.60
2010,02,19,11,26,3.60
2010,02,19,11,27,3.70
2010,02,19,11,28,3.70
2010,02,19,11,29,3.80
2010,02,19,11,30,3.90
2010,02,19,11,31,3.90
2010,02,19,11,32,4.00
2010,02,19,11,33,4.10
2010,02,19,11,34,4.20
2010,02,19,11,35,4.20
2010,02,19,11,36,4.30
2010,02,19,11,37,4.30
2010,02,19,11,38,4.30
2010,02,19,11,39,4.40
2010,02,19,11,40,4.50
2010,02,19,11,41,4.50
2010,02,19,11,42,4.60
2010,02,19,11,43,4.70
2010,02,19,11,44,4.70
2010,02,19,11,45,4.80
2010,02,19,11,46,4.80
2010,02,19,11,47,4.80
2010,02,19,11,48,4.80
2010,02,19,11,49,4.90
2010,02,19,11,50,5.00
2010,02,19,11,51,5.10
2010,02,19,11,52,5.10
2010,02,19,11,53,5.20
2010,02,19,11,54,5.30
2010,02,19,11,55,5.40
2010,02,19,11,56,5.50
2010,02,19,11,57,5.60
2010,02,19,11,58,5.60
2010,02,19,11,59,5.70
2010,02,19,12,00,5.70
2010,02,19,12,01,5.70
2010,02,19,12,02,5.80
2010,02,19,12,03,5.80
2010,02,19,12,04,5.80
2010,02,19,12,05,5.90
2010,02,19,12,06,6.00
2010,02,19,12,07,6.10
2010,02,19,12,08,6.10
2010,02,19,12,09,6.20
2010,02,19,12,10,6.20
2010,02,19,12,11,6.30
2010,02,19,12,12,6.30
2010,02,19,12,13,6.40
2010,02,19,12,14,6.40
2010,02,19,12,15,6.60
2010,02,19,12,16,6.60
2010,02,19,12,17,6.60
2010,02,19,12,18,6.70
2010,02,19,12,19,6.70
2010,02,19,12,20,6.80
2010,02,19,12,21,6.80
2010,02,19,12,22,6.90
2010,02,19,12,23,6.90
2010,02,19,12,24,7.00
2010,02,19,12,25,7.00
2010,02,19,12,26,7.10
2010,02,19,12,27,7.10
2010,02,19,12,28,7.20
2010,02,19,12,29,7.20
2010,02,19,12,30,7.20
2010,02,19,12,31,7.30
2010,02,19,12,32,7.40
2010,02,19,12,33,7.60
2010,02,19,12,36,7.90
2010,02,19,12,37,7.90
2010,02,19,12,38,8.10
2010,02,19,12,39,8.10
2010,02,19,12,40,8.20
2010,02,19,12,41,8.20
2010,02,19,12,42,8.30
2010,02,19,12,43,8.30
2010,02,19,12,44,8.30
2010,02,19,12,45,8.30
2010,02,19,12,46,8.30
2010,02,19,12,47,8.40
2010,02,19,12,48,8.40
2010,02,19,12,49,8.50
2010,02,19,12,50,8.50
2010,02,19,12,51,8.50
2010,02,19,12,52,8.60
2010,02,19,12,53,8.60
2010,02,19,12,54,8.60
2010,02,19,12,55,8.60
2010,02,19,12,56,8.60
2010,02,19,12,57,8.50
2010,02,19,12,58,8.50
2010,02,19,12,59,8.50
2010,02,19,13,00,8.50
2010,02,19,13,01,8.40
2010,02,19,13,02,8.40
2010,02,19,13,03,8.40
2010,02,19,13,04,8.40
2010,02,19,13,05,8.40
2010,02,19,13,06,8.50
2010,02,19,13,07,8.50
2010,02,19,13,08,8.50
2010,02,19,13,09,8.60
2010,02,19,13,10,8.60
2010,02,19,13,11,8.60
2010,02,19,13,12,8.60
2010,02,19,13,13,8.70
2010,02,19,13,14,8.70
2010,02,19,13,15,8.70
2010,02,19,13,16,8.70
2010,02,19,13,17,8.70
2010,02,19,13,18,8.70
2010,02,19,13,19,8.70
2010,02,19,13,20,8.80
2010,02,19,13,21,8.80
2010,02,19,13,22,8.80
2010,02,19,13,23,8.90
2010,02,19,13,24,8.90
2010,02,19,13,25,8.90
2010,02,19,13,26,9.00
2010,02,19,13,27,9.10
2010,02,19,13,28,9.20
2010,02,19,13,29,9.20
2010,02,19,13,30,9.30
2010,02,19,13,31,9.40
2010,02,19,13,32,9.40
2010,02,19,13,33,9.40
2010,02,19,13,34,9.50
2010,02,19,13,35,9.50
2010,02,19,13,36,9.60
2010,02,19,13,37,9.60
2010,02,19,13,38,9.60
2010,02,19,13,39,9.70
2010,02,19,13,40,9.70
2010,02,19,13,41,9.80
2010,02,19,13,42,9.80
2010,02,19,13,43,9.90
2010,02,19,13,44,9.90
2010,02,19,13,45,10.00
2010,02,19,13,46,10.00
2010,02,19,13,47,10.10
2010,02,19,13,48,10.10
2010,02,19,13,49,10.10
2010,02,19,13,50,10.10
2010,02,19,13,51,10.20
2010,02,19,13,52,10.20
2010,02,19,13,53,10.20
2010,02,19,13,54,10.30
2010,02,19,13,55,10.30
2010,02,19,13,56,10.40
2010,02,19,13,57,10.50
2010,02,19,13,58,10.60
2010,02,19,13,59,10.70
2010,02,19,14,00,10.80
2010,02,19,14,01,10.80
2010,02,19,14,02,10.90
2010,02,19,14,03,10.90
2010,02,19,14,04,10.90
2010,02,19,14,05,11.00
2010,02,19,14,06,11.00
2010,02,19,14,07,10.90
2010,02,19,14,08,10.90
2010,02,19,14,09,10.90
2010,02,19,14,10,10.90
2010,02,19,14,11,10.90
2010,02,19,14,12,10.90
2010,02,19,14,13,10.90
2010,02,19,14,14,10.90
2010,02,19,14,15,10.90
2010,02,19,14,16,10.90
2010,02,19,14,17,10.90
2010,02,19,14,18,11.00
2010,02,19,14,19,11.10
2010,02,19,14,20,11.10
2010,02,19,14,21,11.10
2010,02,19,14,22,11.10
2010,02,19,14,23,11.10
2010,02,19,14,24,11.20
2010,02,19,14,25,11.20
2010,02,19,14,26,11.30
2010,02,19,14,27,11.30
2010,02,19,14,28,11.30
2010,02,19,14,29,11.40
2010,02,19,14,30,11.40
2010,02,19,14,31,11.40
2010,02,19,14,32,11.40
2010,02,19,14,33,11.40
2010,02,19,14,34,11.40
2010,02,19,14,35,11.40
2010,02,19,14,36,11.40
2010,02,19,14,37,11.40
2010,02,19,14,38,11.50
2010,02,19,14,39,11.50
2010,02,19,14,40,11.50
2010,02,19,14,41,11.50
2010,02,19,14,42,11.50
2010,02,19,14,43,11.60
2010,02,19,14,44,11.60
2010,02,19,14,45,11.70
2010,02,19,14,46,11.70
2010,02,19,14,47,11.80
2010,02,19,14,48,11.80
2010,02,19,14,49,11.90
2010,02,19,14,50,11.90
2010,02,19,14,51,11.90
2010,02,19,14,52,12.00
2010,02,19,14,53,12.10
2010,02,19,14,54,12.10
2010,02,19,14,55,12.10
2010,02,19,14,56,12.10
2010,02,19,14,57,12.10
2010,02,19,14,58,12.10
2010,02,19,14,59,12.10
2010,02,19,15,00,12.20
2010,02,19,15,01,12.20
2010,02,19,15,02,12.20
2010,02,19,15,03,12.20
2010,02,19,15,04,12.30
2010,02,19,15,05,12.30
2010,02,19,15,06,12.30
2010,02,19,15,07,12.40
2010,02,19,15,08,12.40
2010,02,19,15,09,12.50
2010,02,19,15,10,12.50
2010,02,19,15,11,12.60
2010,02,19,15,12,12.60
2010,02,19,15,13,12.70
2010,02,19,15,14,12.80
2010,02,19,15,15,12.80
2010,02,19,15,16,12.80
2010,02,19,15,17,12.90
2010,02,19,15,18,12.90
2010,02,19,15,19,12.90
2010,02,19,15,20,12.90
2010,02,19,15,21,12.90
2010,02,19,15,22,12.80
2010,02,19,15,23,12.80
2010,02,19,15,24,12.80
2010,02,19,15,25,12.70
2010,02,19,15,26,12.70
2010,02,19,15,27,12.60
2010,02,19,15,28,12.50
2010,02,19,15,29,12.40
2010,02,19,15,30,12.30
2010,02,19,15,31,12.30
2010,02,19,15,32,12.20
2010,02,19,15,33,12.20
2010,02,19,15,34,12.20
2010,02,19,15,35,12.20
2010,02,19,15,36,12.20
2010,02,19,15,37,12.20
2010,02,19,15,38,12.20
2010,02,19,15,39,12.20
2010,02,19,15,40,12.20
2010,02,19,15,41,12.20
2010,02,19,15,42,12.20
2010,02,19,15,43,12.10
2010,02,19,15,44,12.10
2010,02,19,15,45,12.00
2010,02,19,15,46,12.00
2010,02,19,15,47,12.00
2010,02,19,15,48,12.00
2010,02,19,15,49,12.00
2010,02,19,15,50,12.00
2010,02,19,15,51,12.00
2010,02,19,15,52,12.00
2010,02,19,15,53,12.10
2010,02,19,15,54,12.10
2010,02,19,15,55,12.10
2010,02,19,15,56,12.10
2010,02,19,15,57,12.10
2010,02,19,15,58,12.20
2010,02,19,15,59,12.20
2010,02,19,16,00,12.20
2010,02,19,16,01,12.20
2010,02,19,16,02,12.20
2010,02,19,16,03,12.20
2010,02,19,16,04,12.20
2010,02,19,16,05,12.20
2010,02,19,16,06,12.20
2010,02,19,16,07,12.20
2010,02,19,16,08,12.20
2010,02,19,16,09,12.20
2010,02,19,16,10,12.20
2010,02,19,16,11,12.20
2010,02,19,16,12,12.20
2010,02,19,16,13,12.20
2010,02,19,16,14,12.20
2010,02,19,16,15,12.20
2010,02,19,16,16,12.20
2010,02,19,16,17,12.20
2010,02,19,16,18,12.20
2010,02,19,16,19,12.20
2010,02,19,16,20,12.20
2010,02,19,16,21,12.20
2010,02,19,16,22,12.10
2010,02,19,16,23,12.10
2010,02,19,16,24,12.00
2010,02,19,16,25,12.00
2010,02,19,16,26,11.90
2010,02,19,16,27,11.90
2010,02,19,16,28,11.90
2010,02,19,16,29,11.90
2010,02,19,16,30,11.90
2010,02,19,16,31,11.90
2010,02,19,16,32,11.90
2010,02,19,16,33,11.90
2010,02,19,16,34,11.90
2010,02,19,16,35,12.00
2010,02,19,16,36,12.00
2010,02,19,16,37,12.00
2010,02,19,16,38,12.00
2010,02,19,16,39,12.00
2010,02,19,16,40,12.10
2010,02,19,16,41,12.10
2010,02,19,16,42,12.10
2010,02,19,16,43,12.10
2010,02,19,16,44,12.10
2010,02,19,16,45,12.00
2010,02,19,16,46,12.00
2010,02,19,16,47,11.90
2010,02,19,16,48,11.90
2010,02,19,16,49,11.90
2010,02,19,16,50,11.90
2010,02,19,16,51,11.80
2010,02,19,16,52,11.80
2010,02,19,16,53,11.80
2010,02,19,16,54,11.80
2010,02,19,16,55,11.70
2010,02,19,16,56,11.70
2010,02,19,16,57,11.70
2010,02,19,16,58,11.60
2010,02,19,16,59,11.60
2010,02,19,17,00,11.60
2010,02,19,17,01,11.50
2010,02,19,17,02,11.50
2010,02,19,17,03,11.40
2010,02,19,17,04,11.40
2010,02,19,17,05,11.30
2010,02,19,17,06,11.30
2010,02,19,17,07,11.30
2010,02,19,17,08,11.30
2010,02,19,17,09,11.20
2010,02,19,17,10,11.20
2010,02,19,17,11,11.10
2010,02,19,17,12,11.10
2010,02,19,17,13,11.10
2010,02,19,17,14,11.10
2010,02,19,17,15,11.00
2010,02,19,17,16,10.90
2010,02,19,17,17,10.90
2010,02,19,17,18,10.90
2010,02,19,17,19,10.90
2010,02,19,17,20,10.80
2010,02,19,17,21,10.80
2010,02,19,17,22,10.80
2010,02,19,17,23,10.80
2010,02,19,17,24,10.70
2010,02,19,17,25,10.70
2010,02,19,17,26,10.60
2010,02,19,17,27,10.60
2010,02,19,17,28,10.60
2010,02,19,17,29,10.50
2010,02,19,17,30,10.50
2010,02,19,17,31,10.40
2010,02,19,17,32,10.40
2010,02,19,17,33,10.40